INTELSAT 10 (IS-10)

Last updated on Mon Oct 14 2024 00:02:37 GMT+0000 (Coordinated Universal Time)

1 26766U 01019A 24287.49117434 -.00000003 00000+0 00000+0 0 9996 2 26766 7.6048 65.4585 0003176 150.3173 49.7056 1.00271385 39486
UTC large
Height (km)
Speed (km/s)
/
Latitude / Longitude
Inclination (degrees)
Orbital Period (minutes)
Azimuth
Elevation
Range (km)
Doppler Factor

Next 0 passes for location: London (51.5072 / 0.1276)

Sorry there are no passes over London.